Change the Weather History Date:

Monday, January 14, 2013

  Actual Average Record
Temperature  
Mean Temperature 6 °F -  
Max Temperature 10 °F 22 °F 43 °F (1959)
Min Temperature 1 °F 4 °F -30 °F (1972)
Degree Days  
Heating Degree Days 60    
Moisture  
Dew Point 1 °F    
Average Humidity 82    
Maximum Humidity 92    
Minimum Humidity 67    
Precipitation  
Precipitation 0.00 in - - ()
Sea Level Pressure  
Sea Level Pressure 30.32 in    
Wind  
Wind Speed 4 mph (WSW)    
Max Wind Speed 15 mph    
Max Gust Speed 23 mph    
Visibility 9 miles    
Events Snow    
Averages and records for this station are not official NWS values.
T = Trace of Precipitation, MM = Missing Value Source: NWS Daily Summary

Daily Weather History Graph

Daily Weather History Graph

Search for Another Location

Airport or City:

Trip Planner

Search our weather history database for the weather conditions in past years. The results will help you decide how hot, cold, wet, or windy it might be!

Date:

Astronomy

Jan. 14, 2013 Rise Set
Actual Time 7:46 AM CST 4:57 PM CST
Civil Twilight 7:14 AM CST 5:30 PM CST
Nautical Twilight 6:38 AM CST 6:06 PM CST
Astronomical Twilight 6:03 AM CST 6:41 PM CST
Moon 9:10 AM CST (1/14) 8:55 PM CST (1/14)
Length of Visible Light 10h 16m
Length of Day
9h 11m
Waxing Crescent, 11% of the Moon is Illuminated
Jan 14
Waxing Crescent
Jan 18
First Quarter
Jan 26
Full
Feb 3
Last Quarter
Feb 10
New

Hourly Weather History & Observations

Time (CST) Temp. Windchill Dew Point Humidity Pressure Visibility Wind Dir Wind Speed Gust Speed Precip Events Conditions
12:10 AM 3.2 °F - -0.4 °F 85% 30.23 in 10.0 mi Calm Calm - N/A   Clear
12:29 AM 3.2 °F - -0.4 °F 85% 30.23 in 10.0 mi Calm Calm - N/A   Clear
12:50 AM 3.2 °F -4.2 °F -0.4 °F 85% 30.24 in 10.0 mi WSW 3.5 mph - N/A   Clear
1:09 AM 3.2 °F -6.2 °F -0.4 °F 85% 30.25 in 10.0 mi SW 4.6 mph - N/A   Clear
1:29 AM 3.2 °F -6.2 °F -0.4 °F 85% 30.26 in 10.0 mi SW 4.6 mph - N/A   Clear
1:49 AM 3.2 °F -6.2 °F -0.4 °F 85% 30.26 in 10.0 mi WSW 4.6 mph - N/A   Clear
2:09 AM 3.2 °F -4.2 °F -0.4 °F 85% 30.25 in 10.0 mi WSW 3.5 mph - N/A   Clear
2:30 AM 3.2 °F - -0.4 °F 85% 30.26 in 10.0 mi Calm Calm - N/A   Clear
2:49 AM 3.2 °F - -0.4 °F 85% 30.26 in 10.0 mi Calm Calm - N/A   Clear
3:09 AM 3.2 °F - -0.4 °F 85% 30.26 in 10.0 mi Calm Calm - N/A   Clear
3:30 AM 3.2 °F - -0.4 °F 85% 30.26 in 10.0 mi Calm Calm - N/A   Clear
3:49 AM 3.2 °F - -0.4 °F 85% 30.27 in 10.0 mi Calm Calm - N/A   Clear
4:09 AM 3.2 °F -6.2 °F -0.4 °F 85% 30.27 in 10.0 mi SW 4.6 mph - N/A   Clear
4:30 AM 3.2 °F -4.2 °F -0.4 °F 85% 30.28 in 10.0 mi SW 3.5 mph - N/A   Clear
4:49 AM 3.2 °F -6.2 °F -0.4 °F 85% 30.28 in 10.0 mi SW 4.6 mph - N/A   Clear
5:09 AM 3.2 °F -6.2 °F -0.4 °F 85% 30.29 in 10.0 mi WSW 4.6 mph - N/A   Clear
5:30 AM 3.2 °F -7.8 °F -0.4 °F 85% 30.29 in 10.0 mi SW 5.8 mph - N/A   Clear
5:49 AM 3.2 °F -4.2 °F -0.4 °F 85% 30.30 in 10.0 mi SW 3.5 mph - N/A   Scattered Clouds
6:09 AM 3.2 °F -7.8 °F 1.4 °F 92% 30.30 in 10.0 mi WSW 5.8 mph - N/A   Mostly Cloudy
6:30 AM 5.0 °F -5.6 °F 1.4 °F 85% 30.31 in 10.0 mi WSW 5.8 mph - N/A   Overcast
6:50 AM 6.8 °F -3.5 °F 1.4 °F 79% 30.32 in 10.0 mi WSW 5.8 mph - N/A   Overcast
7:09 AM 6.8 °F -4.8 °F 1.4 °F 79% 30.33 in 7.0 mi WSW 6.9 mph - N/A Snow Light Snow
7:30 AM 6.8 °F -4.8 °F 1.4 °F 79% 30.34 in 7.0 mi WSW 6.9 mph - N/A Snow Light Snow
7:49 AM 6.8 °F -4.8 °F 1.4 °F 79% 30.34 in 10.0 mi West 6.9 mph - N/A   Overcast
8:09 AM 6.8 °F -4.8 °F 3.2 °F 85% 30.36 in 10.0 mi WSW 6.9 mph - N/A   Overcast
8:29 AM 6.8 °F -6.9 °F 3.2 °F 85% 30.37 in 7.0 mi West 9.2 mph - N/A Snow Light Snow
8:49 AM 6.8 °F -4.8 °F 3.2 °F 85% 30.37 in 4.0 mi West 6.9 mph - N/A Snow Light Snow
9:09 AM 6.8 °F -8.6 °F 1.4 °F 79% 30.38 in 7.0 mi West 11.5 mph 18.4 mph N/A Snow Light Snow
9:29 AM 6.8 °F -9.3 °F 1.4 °F 79% 30.38 in 5.0 mi West 12.7 mph - N/A Snow Light Snow
9:50 AM 6.8 °F -7.8 °F 1.4 °F 79% 30.38 in 7.0 mi West 10.4 mph - N/A   Overcast
10:09 AM 6.8 °F -7.8 °F 1.4 °F 79% 30.39 in 5.0 mi West 10.4 mph - N/A   Haze
10:29 AM 8.6 °F -7.7 °F 1.4 °F 73% 30.38 in 5.0 mi West 13.8 mph 17.3 mph N/A Snow Light Snow
10:50 AM 8.6 °F -8.3 °F 1.4 °F 73% 30.38 in 10.0 mi West 15.0 mph 23.0 mph N/A   Scattered Clouds
11:29 AM 8.6 °F -6.3 °F 1.4 °F 73% 30.37 in 10.0 mi West 11.5 mph - N/A   Clear
12:09 PM 10.4 °F -3.3 °F 3.2 °F 73% 30.36 in 10.0 mi West 10.4 mph - N/A   Scattered Clouds
12:29 PM 10.4 °F -4.8 °F 3.2 °F 73% 30.36 in 10.0 mi West 12.7 mph - N/A   Scattered Clouds
12:50 PM 10.4 °F -5.4 °F 3.2 °F 73% 30.35 in 10.0 mi West 13.8 mph - N/A   Clear
1:09 PM 10.4 °F -5.4 °F 3.2 °F 73% 30.35 in 10.0 mi West 13.8 mph - N/A   Scattered Clouds
1:29 PM 10.4 °F -4.1 °F 3.2 °F 73% 30.35 in 10.0 mi West 11.5 mph - N/A   Scattered Clouds
1:50 PM 8.6 °F -5.5 °F 3.2 °F 79% 30.35 in 10.0 mi West 10.4 mph - N/A   Scattered Clouds
2:10 PM 10.4 °F -2.4 °F 3.2 °F 73% 30.36 in 10.0 mi West 9.2 mph - N/A   Scattered Clouds
2:29 PM 10.4 °F -1.5 °F 3.2 °F 73% 30.36 in 10.0 mi West 8.1 mph - N/A   Clear
2:50 PM 10.4 °F -1.5 °F 3.2 °F 73% 30.36 in 10.0 mi West 8.1 mph - N/A   Clear
3:09 PM 10.4 °F -0.4 °F 3.2 °F 73% 30.36 in 10.0 mi West 6.9 mph - N/A   Clear
3:29 PM 10.4 °F -0.4 °F 3.2 °F 73% 30.35 in 10.0 mi West 6.9 mph - N/A   Clear
3:50 PM 10.4 °F 4.0 °F 1.4 °F 67% 30.36 in 10.0 mi West 3.5 mph - N/A   Clear
4:09 PM 10.4 °F 4.0 °F 1.4 °F 67% 30.36 in 10.0 mi West 3.5 mph - N/A   Clear
4:29 PM 10.4 °F 2.2 °F 1.4 °F 67% 30.36 in 10.0 mi WSW 4.6 mph - N/A   Clear
4:50 PM 8.6 °F - 3.2 °F 79% 30.36 in 7.0 mi Calm Calm - N/A   Clear
5:09 PM 8.6 °F - 1.4 °F 73% 30.36 in 10.0 mi Calm Calm - N/A   Clear
5:30 PM 8.6 °F - 1.4 °F 73% 30.36 in 10.0 mi Calm Calm - N/A   Clear
5:49 PM 6.8 °F - 1.4 °F 79% 30.35 in 5.0 mi Calm Calm - N/A   Haze
6:09 PM 3.2 °F - -0.4 °F 85% 30.35 in 7.0 mi Calm Calm - N/A   Clear
6:30 PM 6.8 °F - 1.4 °F 79% 30.35 in 10.0 mi Calm Calm - N/A   Clear
6:49 PM 6.8 °F - 1.4 °F 79% 30.35 in 10.0 mi Calm Calm - N/A   Clear
7:09 PM 5.0 °F - 1.4 °F 85% 30.34 in 10.0 mi Calm Calm - N/A   Clear
7:30 PM 3.2 °F - 1.4 °F 92% 30.34 in 10.0 mi Calm Calm - N/A   Clear
7:49 PM 3.2 °F - -0.4 °F 85% 30.34 in 10.0 mi Calm Calm - N/A   Clear
8:09 PM 3.2 °F - 1.4 °F 92% 30.33 in 10.0 mi Calm Calm - N/A   Clear
8:30 PM 1.4 °F - -0.4 °F 92% 30.32 in 10.0 mi Calm Calm - N/A   Clear
8:49 PM 1.4 °F - -0.4 °F 92% 30.32 in 10.0 mi Calm Calm - N/A   Clear
9:09 PM 1.4 °F - -0.4 °F 92% 30.31 in 10.0 mi Calm Calm - N/A   Clear
9:30 PM 3.2 °F - -0.4 °F 85% 30.30 in 10.0 mi Calm Calm - N/A   Clear
9:49 PM 3.2 °F - -0.4 °F 85% 30.30 in 7.0 mi Calm Calm - N/A   Clear
10:10 PM 3.2 °F - 1.4 °F 92% 30.29 in 10.0 mi Calm Calm - N/A   Clear
10:30 PM 1.4 °F - -0.4 °F 92% 30.28 in 10.0 mi Calm Calm - N/A   Clear
10:49 PM 1.4 °F - -0.4 °F 92% 30.28 in 10.0 mi Calm Calm - N/A   Clear
11:10 PM 3.2 °F - 1.4 °F 92% 30.28 in 10.0 mi Calm Calm - N/A   Clear
11:30 PM 1.4 °F - -2.2 °F 85% 30.28 in 10.0 mi Calm Calm - N/A   Clear
11:49 PM 1.4 °F - -0.4 °F 92% 30.27 in 10.0 mi Calm Calm - N/A   Clear